TimeCST,TemperatureF,Dew PointF,Humidity,Sea Level PressureIn,VisibilityMPH,Wind Direction,Wind SpeedMPH,Gust SpeedMPH,PrecipitationIn,Events,Conditions,WindDirDegrees,DateUTC
12:15 AM,45.9,22.3,39,30.24,10.0,SE,5.8,-,N/A,,Scattered Clouds,130,2013-11-15 06:15:00
12:55 AM,45.9,23.5,41,30.23,10.0,ESE,5.8,-,N/A,,Clear,120,2013-11-15 06:55:00
1:15 AM,45.5,24.4,44,30.22,10.0,ESE,5.8,-,N/A,,Clear,110,2013-11-15 07:15:00
1:35 AM,45.9,25.5,45,30.22,10.0,ESE,4.6,-,N/A,,Clear,110,2013-11-15 07:35:00
1:55 AM,45.9,26.2,46,30.21,10.0,ESE,4.6,-,N/A,,Scattered Clouds,110,2013-11-15 07:55:00
2:15 AM,45.9,27.0,48,30.21,10.0,ESE,4.6,-,N/A,,Scattered Clouds,110,2013-11-15 08:15:00
2:35 AM,45.9,27.3,48,30.22,10.0,ESE,5.8,-,N/A,,Scattered Clouds,120,2013-11-15 08:35:00
2:55 AM,46.2,28.0,49,30.21,10.0,ESE,5.8,-,N/A,,Mostly Cloudy,120,2013-11-15 08:55:00
3:15 AM,46.4,28.8,50,30.22,10.0,ESE,4.6,-,N/A,,Mostly Cloudy,120,2013-11-15 09:15:00
3:35 AM,46.6,29.5,51,30.21,10.0,ESE,5.8,-,N/A,,Mostly Cloudy,120,2013-11-15 09:35:00
3:55 AM,46.9,30.0,52,30.22,10.0,SE,4.6,-,N/A,,Overcast,130,2013-11-15 09:55:00
4:15 AM,47.3,30.6,52,30.22,10.0,ESE,4.6,-,N/A,,Mostly Cloudy,120,2013-11-15 10:15:00
4:35 AM,47.3,30.9,53,30.22,10.0,ESE,5.8,-,N/A,,Overcast,120,2013-11-15 10:35:00
4:55 AM,47.3,31.5,54,30.22,10.0,ESE,4.6,-,N/A,,Overcast,120,2013-11-15 10:55:00
5:15 AM,47.3,31.8,55,30.22,10.0,SE,5.8,-,N/A,,Mostly Cloudy,130,2013-11-15 11:15:00
5:35 AM,47.5,32.0,55,30.22,10.0,SE,5.8,-,N/A,,Overcast,130,2013-11-15 11:35:00
5:55 AM,47.7,32.5,56,30.23,10.0,SE,4.6,-,N/A,,Overcast,130,2013-11-15 11:55:00
6:15 AM,47.7,32.9,57,30.23,10.0,ESE,6.9,-,N/A,,Mostly Cloudy,120,2013-11-15 12:15:00
6:35 AM,47.5,33.1,57,30.23,10.0,ESE,4.6,-,N/A,,Overcast,120,2013-11-15 12:35:00
6:55 AM,47.7,33.3,57,30.23,10.0,Calm,Calm,-,N/A,,Overcast,0,2013-11-15 12:55:00
7:15 AM,47.7,34.3,60,30.23,10.0,ESE,4.6,-,N/A,Rain,Rain,120,2013-11-15 13:15:00
7:35 AM,47.5,35.6,63,30.23,10.0,ESE,5.8,-,N/A,,Overcast,120,2013-11-15 13:35:00
7:55 AM,47.7,36.7,66,30.23,10.0,ESE,3.5,-,N/A,,Mostly Cloudy,120,2013-11-15 13:55:00
8:15 AM,48.6,36.7,64,30.22,10.0,ESE,6.9,-,N/A,,Scattered Clouds,110,2013-11-15 14:15:00
8:35 AM,49.1,36.7,62,30.22,10.0,ESE,5.8,-,N/A,,Scattered Clouds,110,2013-11-15 14:35:00
8:55 AM,49.5,37.2,63,30.22,10.0,ESE,6.9,-,N/A,,Scattered Clouds,120,2013-11-15 14:55:00
9:15 AM,50.4,37.4,61,30.23,10.0,ESE,3.5,-,N/A,,Scattered Clouds,120,2013-11-15 15:15:00
9:35 AM,51.3,37.8,60,30.22,10.0,East,5.8,-,N/A,,Clear,100,2013-11-15 15:35:00
9:55 AM,52.0,38.5,60,30.23,10.0,ESE,3.5,-,N/A,,Clear,120,2013-11-15 15:55:00
10:15 AM,52.5,39.6,61,30.22,10.0,ESE,5.8,-,N/A,Rain,Light Rain,110,2013-11-15 16:15:00
10:35 AM,52.5,40.6,64,30.20,10.0,East,3.5,-,N/A,Rain,Light Rain,90,2013-11-15 16:35:00
10:55 AM,52.9,41.5,65,30.19,10.0,ESE,4.6,-,N/A,,Light Drizzle,110,2013-11-15 16:55:00
11:15 AM,53.6,42.3,65,30.18,10.0,ESE,3.5,-,N/A,,Overcast,120,2013-11-15 17:15:00
11:35 AM,53.8,43.0,67,30.17,10.0,East,4.6,-,N/A,,Overcast,90,2013-11-15 17:35:00
11:55 AM,54.0,43.5,68,30.17,10.0,Calm,Calm,-,N/A,,Overcast,0,2013-11-15 17:55:00
12:15 PM,54.3,43.9,68,30.17,10.0,Calm,Calm,-,N/A,Rain,Light Rain,0,2013-11-15 18:15:00
12:35 PM,52.7,45.1,75,30.17,7.0,NNW,4.6,-,N/A,Rain,Rain,330,2013-11-15 18:35:00
12:55 PM,50.4,46.8,87,30.17,10.0,NW,3.5,-,N/A,,Drizzle,310,2013-11-15 18:55:00
1:15 PM,49.8,47.5,92,30.18,7.0,Calm,Calm,-,N/A,Rain,Rain,0,2013-11-15 19:15:00
1:35 PM,49.5,48.0,95,30.18,3.0,Calm,Calm,-,0.03,Rain,Rain,0,2013-11-15 19:35:00
1:55 PM,49.6,48.6,96,30.16,4.0,Calm,Calm,-,0.08,Rain,Rain,0,2013-11-15 19:55:00
2:15 PM,50.0,48.7,95,30.15,5.0,ESE,4.6,-,0.01,Rain,Light Rain,110,2013-11-15 20:15:00
2:35 PM,50.0,48.6,95,30.14,5.0,ESE,3.5,-,0.03,Rain,Rain,110,2013-11-15 20:35:00
2:55 PM,50.0,48.9,96,30.13,5.0,ESE,8.1,-,0.05,Rain,Light Rain,120,2013-11-15 20:55:00
3:15 PM,50.2,49.3,97,30.11,5.0,ESE,8.1,16.1,0.01,Rain,Light Rain,120,2013-11-15 21:15:00
3:35 PM,50.4,49.5,97,30.11,7.0,ESE,9.2,-,0.01,,Scattered Clouds,120,2013-11-15 21:35:00
3:55 PM,50.5,49.5,96,30.10,7.0,SE,4.6,-,0.01,,Clear,130,2013-11-15 21:55:00
4:15 PM,50.7,49.6,96,30.11,7.0,SSE,4.6,-,N/A,,Scattered Clouds,160,2013-11-15 22:15:00
4:35 PM,51.1,50.0,96,30.10,7.0,ESE,6.9,-,N/A,,Scattered Clouds,120,2013-11-15 22:35:00
4:55 PM,50.5,49.6,97,30.11,7.0,SE,5.8,-,N/A,,Scattered Clouds,140,2013-11-15 22:55:00
5:15 PM,50.4,49.5,97,30.11,7.0,SE,4.6,-,N/A,,Clear,130,2013-11-15 23:15:00
5:35 PM,50.2,49.3,97,30.12,7.0,SE,4.6,-,N/A,,Clear,130,2013-11-15 23:35:00
5:55 PM,50.0,49.1,97,30.13,7.0,Calm,Calm,-,N/A,,Clear,0,2013-11-15 23:55:00
6:15 PM,49.8,49.1,97,30.13,7.0,ESE,4.6,-,N/A,,Mostly Cloudy,110,2013-11-16 00:15:00
6:35 PM,50.0,49.5,98,30.13,7.0,ESE,5.8,-,N/A,,Overcast,120,2013-11-16 00:35:00
6:55 PM,50.2,49.5,97,30.13,7.0,SE,5.8,-,N/A,,Mostly Cloudy,140,2013-11-16 00:55:00
7:15 PM,50.0,49.1,97,30.13,7.0,SE,5.8,-,N/A,,Scattered Clouds,130,2013-11-16 01:15:00
7:35 PM,49.6,48.9,97,30.13,5.0,ESE,4.6,-,N/A,,Clear,110,2013-11-16 01:35:00
7:55 PM,49.3,48.7,98,30.13,5.0,ESE,4.6,-,N/A,,Clear,110,2013-11-16 01:55:00
8:15 PM,49.1,48.6,98,30.14,5.0,ESE,6.9,-,N/A,,Clear,120,2013-11-16 02:15:00
8:35 PM,48.7,48.2,98,30.14,4.0,ESE,6.9,-,N/A,,Clear,120,2013-11-16 02:35:00
8:55 PM,48.6,48.2,99,30.15,1.8,ESE,6.9,-,N/A,,Mostly Cloudy,120,2013-11-16 02:55:00
9:15 PM,48.6,48.2,99,30.14,3.0,ESE,5.8,-,N/A,,Mist,120,2013-11-16 03:15:00
9:35 PM,48.6,48.4,99,30.15,0.8,SE,4.6,-,N/A,,Overcast,130,2013-11-16 03:35:00
9:55 PM,48.6,48.4,99,30.15,0.5,ESE,4.6,-,N/A,Fog,Fog,120,2013-11-16 03:55:00
10:15 PM,48.4,48.4,100,30.16,1.0,ESE,3.5,-,N/A,,Overcast,120,2013-11-16 04:15:00
10:35 PM,48.9,48.7,99,30.16,1.5,East,3.5,-,N/A,,Overcast,100,2013-11-16 04:35:00
10:55 PM,49.5,49.3,99,30.16,1.8,ESE,4.6,-,N/A,,Overcast,110,2013-11-16 04:55:00
11:15 PM,49.8,49.6,99,30.15,2.5,ESE,4.6,-,N/A,,Overcast,110,2013-11-16 05:15:00
11:35 PM,50.2,50.0,99,30.15,2.5,ESE,5.8,-,N/A,,Overcast,120,2013-11-16 05:35:00
11:55 PM,50.4,50.0,99,30.14,2.5,ESE,4.6,-,N/A,,Overcast,110,2013-11-16 05:55:00